Tracking 18840 objects as of 19-November-2017
HD Live streaming from Space Station
objects crossing your sky now

NAVSTAR 67 (USA 239)

Track NAVSTAR 67 (USA 239) now!
NAVSTAR 67 (USA 239) is classified as:


NORAD ID: 38833
Int'l Code: 2012-053A
Perigee: 20,024.5 km
Apogee: 20,354.1 km
Inclination: 54.1 °
Period: 718.0 minutes
Semi major axis: 26560 km
RCS: 2.5414 m2 (large)
Launch date: October 4, 2012
Source: United States (US)
Launch site: AIR FORCE EASTERN TEST RANGE (AFETR)
PRN: 24

NAVSTAR 67 (USA 239) also known as GPS 2F-3 will assume the role filled by the GPS 2A-21 spacecraft that has been in service since July 21, 1993.
aabbcc
Your satellite tracking list
Your tracking list is empty




NASA's NSSDC Master Catalog

Two Line Element Set (TLE):
1 38833U 12053A   17322.25503038 -.00000055 +00000-0 +00000-0 0  9998
2 38833 054.0639 272.2161 0062045 025.4948 334.7910 02.00563989036710
Source of the keplerian elements: AFSPC